Voltar ao catálogo

CZ-6A DEB

AtivoPO
NORAD 60800·DEBRIS·🇨🇳 China

Lançado Aug 6, 2024 de Taiyuan Satellite Launch Center

Loading…

Próximas Passagens (próximas 24 horas)

TLE

AtualizadoSource: Space-Track

Época: Sep 14, 2026, 10:49 UTC

1 60800U 24140GB  26257.45102416  .00000158  00000-0  76314-4 0  9999
2 60800  88.9971 265.8150 0073406 277.1904  82.0941 14.12685185107783

Acompanhe CZ-6A DEB em tempo real com AllMySat

Download on the App Store